Volver al catálogo

FENGYUN 1C DEB

ActivoSSO
NORAD 30088·DEBRIS·🇨🇳 China

Lanzado May 10, 1999 desde Taiyuan Satellite Launch Center

Loading…

Próximos Pases (próximas 24 horas)

TLE

ActualizadoSource: Space-Track

Época: Sep 13, 2026, 21:33 UTC

1 30088U 99025QR  26256.89840479  .00000499  00000-0  14793-3 0  9993
2 30088  98.3811 238.5241 0200875 144.5182 246.9968 14.36538322 26204

Sigue FENGYUN 1C DEB en tiempo real con AllMySat

Download on the App Store